EDT,Max TemperatureF,Mean TemperatureF,Min TemperatureF,Max Dew PointF,MeanDew PointF,Min DewpointF,Max Humidity, Mean Humidity, Min Humidity, Max Sea Level PressureIn, Mean Sea Level PressureIn, Min Sea Level PressureIn, Max VisibilityMiles, Mean VisibilityMiles, Min VisibilityMiles, Max Wind SpeedMPH, Mean Wind SpeedMPH, Max Gust SpeedMPH,PrecipitationIn, CloudCover, Events, WindDirDegrees
2012-9-1,87,80,75,77,75,74,100,82,70,30.13,30.08,30.04,10,10,10,16,6,23,0.05,2,Rain,36
2012-9-2,87,80,75,75,40,33,88,25,20,30.06,30.03,29.99,10,10,10,15,8,21,0.01,3,Rain,40
2012-9-3,86,80,77,74,72,69,82,72,65,30.07,30.02,29.99,10,10,10,15,6,22,0.00,1,,117
2012-9-4,88,81,75,74,71,61,84,74,54,30.06,30.01,29.97,10,10,9,15,5,20,0.02,2,Rain-Thunderstorm,162
2012-9-5,88,81,75,75,72,68,89,78,63,30.03,30.00,29.95,10,10,3,16,6,17,0.08,2,Rain-Thunderstorm,146
2012-9-6,88,80,73,76,73,67,94,83,65,30.05,30.01,29.98,10,10,4,13,3,,0.08,2,Rain,152
2012-9-7,87,80,73,75,72,68,93,79,69,30.03,29.98,29.94,10,10,10,13,4,16,0.00,3,Rain-Thunderstorm,164
2012-9-8,89,82,75,77,73,70,91,76,59,30.00,29.95,29.90,10,10,5,16,5,21,0.19,1,Rain-Thunderstorm,178
2012-9-9,93,84,77,74,72,67,88,68,45,30.00,29.96,29.91,10,10,10,16,9,22,0.00,1,,239
2012-9-10,91,84,78,76,74,72,93,76,57,30.02,29.99,29.94,10,10,6,15,7,,0.07,2,Rain,277
2012-9-11,89,82,75,77,74,72,94,78,65,30.07,30.04,29.99,10,10,9,17,6,25,0.00,3,,46
2012-9-12,88,82,78,76,73,70,87,72,61,30.08,30.04,30.00,10,10,4,18,13,25,0.11,4,Rain,70
2012-9-13,82,78,73,76,73,71,94,84,74,30.09,30.02,29.99,10,7,1,24,14,32,1.27,7,Rain-Thunderstorm,88
2012-9-14,87,80,75,76,73,71,96,79,65,30.04,30.00,29.97,10,10,8,13,8,21,0.13,3,Rain-Thunderstorm,81
2012-9-15,84,78,73,78,73,70,97,86,72,30.06,30.01,29.99,10,8,1,21,8,29,1.53,6,Rain-Thunderstorm,65
2012-9-16,81,78,75,77,72,70,96,80,74,30.06,30.01,29.98,10,10,10,13,7,20,0.14,3,Rain,99
2012-9-17,82,78,73,75,74,69,94,85,69,30.04,29.99,29.94,10,10,2,18,7,22,0.06,3,Rain,147
2012-9-18,89,82,75,78,74,71,97,82,55,30.01,29.97,29.91,10,9,1,16,7,21,1.19,3,Rain-Thunderstorm,195
2012-9-19,87,80,75,76,74,69,97,83,59,30.06,30.00,29.94,10,10,10,9,5,,0.00,1,,211
2012-9-20,86,80,75,76,74,71,94,82,69,30.05,30.00,29.95,10,10,10,14,7,20,0.00,3,,42
2012-9-21,84,77,72,75,73,70,100,87,69,30.00,29.97,29.92,10,10,3,10,4,,0.40,5,Rain-Thunderstorm,39
2012-9-22,80,76,73,76,75,73,100,94,82,30.04,29.99,29.93,10,7,0,16,5,21,1.69,6,Fog-Rain-Thunderstorm,53
2012-9-23,81,77,73,76,75,73,100,93,79,30.06,30.03,30.00,10,10,10,9,3,,0.08,3,Rain,16
2012-9-24,82,77,72,75,73,69,100,87,74,30.07,30.03,29.99,10,10,9,14,4,,0.03,3,Rain,360
2012-9-25,82,78,73,74,72,65,97,83,62,30.08,30.04,30.00,10,10,9,13,6,,0.08,4,Rain-Thunderstorm,31
2012-9-26,82,80,78,76,73,70,84,80,74,30.09,30.07,30.02,10,10,10,10,8,,0.00,3,Rain,68
2012-9-27,84,80,75,76,74,70,97,81,69,30.09,30.05,30.00,10,10,10,14,6,,0.00,2,Rain-Thunderstorm,48
2012-9-28,84,78,73,76,74,73,100,88,74,30.04,29.99,29.95,10,10,9,13,4,,0.06,2,Rain-Thunderstorm,26
2012-9-29,84,78,73,75,74,73,100,87,72,29.99,29.93,29.86,10,10,9,10,4,,0.00,2,Rain-Thunderstorm,88
2012-9-30,84,78,73,76,74,72,100,84,71,29.91,29.87,29.81,10,10,10,13,5,18,0.00,1,,149